When you browse on this site, cookies collect data to enhance your experience and personalize the content and advertising you see.
Visit our Privacy Policy to learn more. By continuing to use the site, you agree to this use of cookies and data.
  • în România
  • Lista ţărilor
  • Pe 7 zile
  • Temperatura apei
  • Hartă satelitară
  • Meteo pe hartă
  • Widget-uri
  • user-avatar
    Intrare

    Meteo pe oră la Barnsley

    Astăzi, 26 Iunie, Miercuri

    Timp Temperatura Precipitaţii Vânt Presiune Umiditate
    00:00 +12°C° 0 mm 4 m/s 759 mmHg 92%
    01:00 +12°C° 0 mm 3 m/s 759 mmHg 92%
    02:00 +12°C° 0 mm 3 m/s 759 mmHg 92%
    03:00 +12°C° 0 mm 3 m/s 759 mmHg 92%
    04:00 +12°C° 0 mm 3 m/s 760 mmHg 91%
    05:00 +12°C° 0 mm 4 m/s 760 mmHg 91%
    06:00 +12°C° 0 mm 4 m/s 761 mmHg 90%
    07:00 +12°C° 0 mm 4 m/s 761 mmHg 87%
    08:00 +13°C° 0 mm 4 m/s 761 mmHg 85%
    09:00 +13°C° 0 mm 4 m/s 761 mmHg 83%
    10:00 +14°C° 0 mm 3 m/s 762 mmHg 80%
    11:00 +16°C° 0 mm 3 m/s 762 mmHg 77%
    12:00 +17°C° 0 mm 3 m/s 763 mmHg 75%
    13:00 +17°C° 0 mm 3 m/s 763 mmHg 73%
    14:00 +18°C° 0 mm 3 m/s 763 mmHg 71%
    15:00 +18°C° 0 mm 3 m/s 762 mmHg 70%
    16:00 +18°C° 0 mm 3 m/s 762 mmHg 71%
    17:00 +18°C° 0 mm 4 m/s 762 mmHg 72%
    18:00 +18°C° 0 mm 4 m/s 763 mmHg 73%
    19:00 +16°C° 0 mm 3 m/s 763 mmHg 77%
    20:00 +14°C° 0 mm 3 m/s 763 mmHg 80%
    21:00 +12°C° 0 mm 3 m/s 763 mmHg 84%
    22:00 +12°C° 0 mm 2 m/s 763 mmHg 83%
    23:00 +12°C° 0 mm 2 m/s 764 mmHg 83%

    Mâine, 27 Iunie, Joi

    Timp Temperatura Precipitaţii Vânt Presiune Umiditate
    00:00 +11°C° 0 mm 1 m/s 764 mmHg 83%
    01:00 +10°C° 0 mm 1 m/s 764 mmHg 82%
    02:00 +10°C° 0 mm 1 m/s 763 mmHg 82%
    03:00 +10°C° 0 mm 1 m/s 763 mmHg 81%
    04:00 +11°C° 0 mm 1 m/s 763 mmHg 76%
    05:00 +11°C° 0 mm 1 m/s 763 mmHg 72%
    06:00 +12°C° 0 mm 1 m/s 763 mmHg 67%
    07:00 +14°C° 0 mm 2 m/s 763 mmHg 65%
    08:00 +16°C° 0 mm 2 m/s 763 mmHg 62%
    09:00 +18°C° 0 mm 2 m/s 763 mmHg 59%
    10:00 +19°C° 0 mm 3 m/s 763 mmHg 58%
    11:00 +20°C° 0 mm 3 m/s 763 mmHg 57%
    12:00 +22°C° 0 mm 4 m/s 763 mmHg 56%
    13:00 +22°C° 0 mm 4 m/s 763 mmHg 56%
    14:00 +22°C° 0 mm 4 m/s 763 mmHg 57%
    15:00 +22°C° 0 mm 5 m/s 763 mmHg 57%
    16:00 +21°C° 0 mm 5 m/s 763 mmHg 59%
    17:00 +20°C° 0 mm 4 m/s 762 mmHg 62%
    18:00 +19°C° 0 mm 4 m/s 762 mmHg 64%
    19:00 +18°C° 0 mm 4 m/s 762 mmHg 69%
    20:00 +15°C° 0 mm 4 m/s 762 mmHg 75%
    21:00 +13°C° 0 mm 3 m/s 762 mmHg 80%
    22:00 +12°C° 0 mm 3 m/s 762 mmHg 82%
    23:00 +12°C° 0 mm 3 m/s 762 mmHg 84%

    Poimâine, 28 Iunie, Vineri

    Timp Temperatura Precipitaţii Vânt Presiune Umiditate
    00:00 +11°C° 0 mm 3 m/s 762 mmHg 86%
    01:00 +12°C° 0 mm 2 m/s 761 mmHg 87%
    02:00 +10°C° 0 mm 2 m/s 761 mmHg 88%
    03:00 +10°C° 0 mm 2 m/s 761 mmHg 90%
    04:00 +12°C° 0 mm 2 m/s 761 mmHg 89%
    05:00 +12°C° 0 mm 2 m/s 761 mmHg 88%
    06:00 +13°C° 0 mm 2 m/s 760 mmHg 87%
    07:00 +13°C° 0 mm 3 m/s 760 mmHg 81%
    08:00 +16°C° 0 mm 3 m/s 760 mmHg 75%
    09:00 +17°C° 0 mm 3 m/s 760 mmHg 69%
    10:00 +19°C° 0 mm 4 m/s 759 mmHg 66%
    11:00 +20°C° 0 mm 4 m/s 759 mmHg 62%
    12:00 +21°C° 0 mm 5 m/s 759 mmHg 59%
    13:00 +22°C° 0 mm 5 m/s 758 mmHg 58%
    14:00 +22°C° 0 mm 5 m/s 758 mmHg 58%
    15:00 +22°C° 0 mm 5 m/s 758 mmHg 57%
    16:00 +21°C° 0 mm 5 m/s 757 mmHg 60%
    17:00 +21°C° 0 mm 5 m/s 757 mmHg 63%
    18:00 +20°C° 0 mm 5 m/s 756 mmHg 65%
    19:00 +18°C° 0 mm 4 m/s 756 mmHg 70%
    20:00 +17°C° 0 mm 4 m/s 756 mmHg 75%
    21:00 +14°C° 0 mm 3 m/s 756 mmHg 80%
    22:00 +14°C° 0 mm 3 m/s 756 mmHg 81%
    23:00 +14°C° 0 mm 2 m/s 756 mmHg 82%

    29 Iunie, Sâmbătă

    Timp Temperatura Precipitaţii Vânt Presiune Umiditate
    00:00 +13°C° 0 mm 2 m/s 755 mmHg 83%
    01:00 +13°C° 0 mm 2 m/s 755 mmHg 83%
    02:00 +13°C° 0 mm 2 m/s 754 mmHg 83%
    03:00 +12°C° 0 mm 2 m/s 754 mmHg 84%
    04:00 +13°C° 0 mm 2 m/s 754 mmHg 82%
    05:00 +14°C° 0 mm 2 m/s 753 mmHg 80%
    06:00 +14°C° 0 mm 2 m/s 753 mmHg 79%
    07:00 +16°C° 0 mm 3 m/s 752 mmHg 75%
    08:00 +18°C° 0 mm 3 m/s 752 mmHg 71%
    09:00 +20°C° 0 mm 3 m/s 752 mmHg 68%
    10:00 +22°C° 0 mm 3 m/s 751 mmHg 66%
    11:00 +23°C° 0 mm 4 m/s 751 mmHg 65%
    12:00 +26°C° 0 mm 4 m/s 750 mmHg 64%
    13:00 +26°C° 0 mm 4 m/s 750 mmHg 64%
    14:00 +27°C° 0 mm 4 m/s 749 mmHg 64%
    15:00 +27°C° 0 mm 4 m/s 749 mmHg 64%
    16:00 +26°C° 0 mm 4 m/s 749 mmHg 70%
    17:00 +25°C° 0 mm 3 m/s 748 mmHg 76%
    18:00 +24°C° 0 mm 3 m/s 748 mmHg 82%
    19:00 +22°C° 0.1 mm 3 m/s 748 mmHg 83%
    20:00 +21°C° 0.1 mm 3 m/s 748 mmHg 83%
    21:00 +20°C° 0.1 mm 4 m/s 748 mmHg 84%
    22:00 +18°C° 0 mm 4 m/s 748 mmHg 80%
    23:00 +17°C° 0 mm 4 m/s 748 mmHg 76%

    30 Iunie, Duminică

    Timp Temperatura Precipitaţii Vânt Presiune Umiditate
    00:00 +15°C° 0 mm 5 m/s 748 mmHg 73%
    01:00 +15°C° 0 mm 4 m/s 748 mmHg 76%
    02:00 +14°C° 0 mm 4 m/s 748 mmHg 79%
    03:00 +14°C° 0 mm 4 m/s 748 mmHg 82%
    04:00 +14°C° 0 mm 4 m/s 748 mmHg 81%
    05:00 +15°C° 0 mm 4 m/s 749 mmHg 80%
    06:00 +15°C° 0 mm 4 m/s 749 mmHg 78%
    07:00 +17°C° 0 mm 4 m/s 749 mmHg 76%
    08:00 +17°C° 0 mm 5 m/s 749 mmHg 73%
    09:00 +17°C° 0 mm 5 m/s 750 mmHg 70%
    10:00 +19°C° 0 mm 5 m/s 750 mmHg 67%
    11:00 +20°C° 0 mm 5 m/s 750 mmHg 63%
    12:00 +21°C° 0 mm 5 m/s 750 mmHg 60%
    13:00 +21°C° 0 mm 5 m/s 750 mmHg 59%
    14:00 +21°C° 0 mm 5 m/s 750 mmHg 59%
    15:00 +21°C° 0 mm 5 m/s 750 mmHg 59%
    16:00 +20°C° 0 mm 5 m/s 750 mmHg 61%
    17:00 +20°C° 0 mm 5 m/s 750 mmHg 62%
    18:00 +19°C° 0 mm 5 m/s 750 mmHg 64%
    19:00 +17°C° 0 mm 5 m/s 750 mmHg 68%
    20:00 +17°C° 0 mm 4 m/s 751 mmHg 72%
    21:00 +15°C° 0 mm 4 m/s 751 mmHg 75%
    22:00 +14°C° 0 mm 4 m/s 751 mmHg 75%
    23:00 +13°C° 0 mm 4 m/s 751 mmHg 74%

    1 Iulie, Luni

    Timp Temperatura Precipitaţii Vânt Presiune Umiditate
    00:00 +13°C° 0 mm 4 m/s 752 mmHg 74%
    01:00 +13°C° 0 mm 4 m/s 752 mmHg 71%
    02:00 +13°C° 0 mm 4 m/s 752 mmHg 68%
    03:00 +13°C° 0 mm 5 m/s 752 mmHg 66%
    04:00 +13°C° 0 mm 5 m/s 752 mmHg 67%
    05:00 +13°C° 0 mm 5 m/s 752 mmHg 69%
    06:00 +13°C° 0 mm 6 m/s 752 mmHg 71%
    07:00 +13°C° 0 mm 6 m/s 752 mmHg 69%
    08:00 +14°C° 0 mm 6 m/s 752 mmHg 66%
    09:00 +14°C° 0 mm 7 m/s 752 mmHg 63%
    10:00 +15°C° 0 mm 7 m/s 752 mmHg 63%
    11:00 +15°C° 0 mm 7 m/s 753 mmHg 62%
    12:00 +16°C° 0 mm 8 m/s 753 mmHg 61%
    13:00 +16°C° 0 mm 8 m/s 753 mmHg 60%
    14:00 +17°C° 0 mm 8 m/s 753 mmHg 59%
    15:00 +17°C° 0 mm 9 m/s 753 mmHg 59%
    16:00 +16°C° 0 mm 8 m/s 754 mmHg 59%
    17:00 +16°C° 0 mm 7 m/s 754 mmHg 59%
    18:00 +15°C° 0 mm 7 m/s 755 mmHg 60%
    19:00 +14°C° 0 mm 6 m/s 755 mmHg 64%
    20:00 +13°C° 0 mm 5 m/s 756 mmHg 67%
    21:00 +12°C° 0 mm 5 m/s 756 mmHg 71%
    22:00 +12°C° 0 mm 4 m/s 757 mmHg 73%
    23:00 +11°C° 0 mm 4 m/s 757 mmHg 74%
    Arată mai mult